Lytton, British Columbia

9:25 PM PST on November 18, 2017 (GMT -0800)
Lytton

Weather History for CWLY - September, 2012

Change the Weather History Date:

Monday, September 24, 2012

  Actual Average Record
Temperature  
Mean Temperature 64 °F -  
Max Temperature 74 °F 58 °F 87 °F (2001)
Min Temperature 53 °F 42 °F 37 °F (2005)
Degree Days  
Heating Degree Days 2    
Growing Degree Days 14 (Base 50)    
Moisture  
Dew Point 50 °F    
Average Humidity 58    
Maximum Humidity 82    
Minimum Humidity 34    
Precipitation  
Precipitation 0.02 in 0.04 in - ()
Sea Level Pressure  
Sea Level Pressure 30.00 in    
Wind  
Wind Speed 13 mph ()    
Max Wind Speed 28 mph    
Max Gust Speed 45 mph    
Visibility 9.0 miles    
Events      
Averages and records for this station are not official NWS values.
T = Trace of Precipitation, MM = Missing Value Source: Averaged Metar Reports

Daily Weather History Graph

Daily Weather History Graph

Search for Another Location

Airport or City:

Trip Planner

Search our weather history database for the weather conditions in past years. The results will help you decide how hot, cold, wet, or windy it might be!

Date:

Astronomy

Sep. 24, 2012 Rise Set
Actual Time 6:56 AM PDT 6:58 PM PDT
Civil Twilight 6:24 AM PDT 7:30 PM PDT
Nautical Twilight 5:46 AM PDT 8:08 PM PDT
Astronomical Twilight 5:06 AM PDT 8:48 PM PDT
Moon 4:14 PM PDT (9/24) 12:49 AM PDT (9/24)
Length of Visible Light 13h 06m
Length of Day
12h 01m
Waxing Gibbous, 71% of the Moon is Illuminated
Sep 24
Waxing Gibbous
Sep 29
Full
Oct 8
Last Quarter
Oct 15
New
Oct 21
First Quarter

Hourly Weather History & Observations

Time (PDT) Temp. Dew Point Humidity Pressure Visibility Wind Dir Wind Speed Gust Speed Precip Events Conditions
12:00 AM 64.4 °F 51.8 °F 64% 30.05 in 9.0 mi SSW 12.7 mph 24.2 mph N/A   Clear
1:00 AM 62.6 °F 51.8 °F 68% 30.05 in 9.0 mi South 15.0 mph 24.2 mph N/A   Clear
2:00 AM 62 °F 51 °F 59% 30.06 in 9 mi South 16.1 mph - -  
2:00 AM 60.8 °F 51.8 °F 72% 30.06 in 9.0 mi South 15.0 mph 23.0 mph N/A   Clear
3:00 AM 60.8 °F 51.8 °F 72% 30.06 in 9.0 mi SSW 9.2 mph 20.7 mph N/A   Clear
4:00 AM 60.8 °F 51.8 °F 72% 30.07 in 9.0 mi South 10.4 mph 23.0 mph N/A   Clear
5:00 AM 60 °F 51 °F 63% 30.07 in 9 mi South 12.7 mph - -  
5:00 AM 59.0 °F 50.0 °F 72% 30.07 in 9.0 mi SSW 10.4 mph 21.9 mph N/A   Clear
6:00 AM 59.0 °F 50.0 °F 72% 30.07 in 9.0 mi South 10.4 mph - N/A   Clear
7:00 AM 57.2 °F 50.0 °F 77% 30.08 in 9.0 mi South 2.3 mph - N/A   Clear
8:00 AM 54 °F 49 °F 79% 30.09 in 9 mi SSE 2.3 mph - -  
8:00 AM 55.4 °F 50.0 °F 82% 30.09 in 9.0 mi Calm Calm - N/A   Clear
9:00 AM 55.4 °F 50.0 °F 82% 30.08 in 9.0 mi SSE 3.5 mph - N/A   Scattered Clouds
10:00 AM 62.6 °F 51.8 °F 68% 30.06 in 9.0 mi South 17.3 mph 25.3 mph N/A   Partly Cloudy
11:00 AM 66 °F 51 °F 49% 30.03 in 9 mi South 15.0 mph - -  
11:00 AM 66.2 °F 51.8 °F 60% 30.03 in 9.0 mi South 16.1 mph 23.0 mph N/A   Partly Cloudy
12:00 PM 68.0 °F 51.8 °F 56% 30.00 in 9.0 mi South 12.7 mph 19.6 mph N/A   Clear
1:00 PM 71.6 °F 51.8 °F 50% 29.95 in 9.0 mi South 26.5 mph 34.5 mph N/A   Clear
2:00 PM 73 °F 51 °F 35% 29.91 in 9 mi South 23.0 mph - -  
2:00 PM 73.4 °F 50.0 °F 44% 29.91 in 9.0 mi South 19.6 mph 39.1 mph N/A   Clear
3:00 PM 73.4 °F 50.0 °F 44% 29.90 in 9.0 mi SSW 19.6 mph 32.2 mph N/A   Partly Cloudy
4:00 PM 73.4 °F 50.0 °F 44% 29.89 in 9.0 mi SSW 27.6 mph 35.7 mph N/A   Partly Cloudy
5:00 PM 73 °F 50 °F 34% 29.88 in 9 mi South 24.2 mph - -  
5:00 PM 73.4 °F 50.0 °F 44% 29.88 in 9.0 mi SSW 21.9 mph 42.6 mph N/A   Clear
6:00 PM 69.8 °F 48.2 °F 46% 29.89 in 9.0 mi SSW 21.9 mph 41.4 mph N/A   Partly Cloudy
7:00 PM 69.8 °F 48.2 °F 46% 29.92 in 9.0 mi SSW 27.6 mph 44.9 mph N/A   Clear
8:00 PM 68 °F 48 °F 38% 29.95 in 9 mi SSW 20.7 mph - -  
8:00 PM 68.0 °F 48.2 °F 49% 29.95 in 9.0 mi SSW 21.9 mph 31.1 mph N/A   Clear
9:00 PM 66.2 °F 48.2 °F 52% 29.96 in 9.0 mi SSW 24.2 mph 34.5 mph N/A   Clear
10:00 PM 66.2 °F 50.0 °F 56% 29.97 in 9.0 mi South 23.0 mph 35.7 mph N/A   Clear
11:00 PM 65 °F 50 °F 47% 29.97 in 9 mi SSW 20.7 mph - -  
11:00 PM 66.2 °F 50.0 °F 56% 29.97 in 9.0 mi South 21.9 mph 31.1 mph N/A   Clear